Tracking 26894 objects as of 1-Feb-2023
HD Live streaming from Space Station
objects crossing your sky now

LEMUR 2 ANDIS

Track LEMUR 2 ANDIS now!
10-day predictions
LEMUR 2 ANDIS is classified as:


NORAD ID: 42838
Int'l Code: 2017-042P
Perigee: 580.8 km
Apogee: 596.7 km
Inclination: 97.4 °
Period: 96.3 minutes
Semi major axis: 6959 km
RCS: Unknown
Launch date: July 14, 2017
Source: United States (US)
Launch site: TYURATAM MISSILE AND SPACE COMPLEX (TTMTR)
Your satellite tracking list
Your tracking list is empty




NASA's NSSDC Master Catalog

Two Line Element Set (TLE):
1 42838U 17042P   23032.54471247  .00003946  00000-0  36297-3 0  9995
2 42838  97.4022 242.3568 0011393 315.1055  44.9245 14.95252817302487
Source of the keplerian elements: AFSPC